Location: Peebles
(55.6412°N, 3.1714°W)
Time: 09:07:34
(UTC+01:00)

HORYU 2 - Visible Passes

Search period start: 26 June 2022 00:00
Search period end: 06 July 2022 00:00
Orbit: 632 x 647 km, 98.2° (Epoch: 25 June)

Date Brightness Start Highest point End Pass type
(mag) Time Alt. Az. Time Alt. Az. Time Alt. Az.
27 Jun ? 00:23:14 10° SW 00:26:44 22° W 00:30:14 10° NW visible
27 Jun ? 23:08:43 10° SSE 23:13:12 86° WSW 23:17:42 10° NNW visible
28 Jun ? 00:47:54 10° WSW 00:50:23 15° W 00:52:53 10° NW visible
28 Jun ? 23:32:14 10° S 23:36:37 55° WSW 23:41:03 10° NNW visible
29 Jun ? 23:56:01 10° SSW 00:00:08 35° W 00:04:15 10° NNW visible
01 Jul ? 00:20:06 10° SW 00:23:42 23° W 00:27:18 10° NW visible
01 Jul ? 23:05:44 10° SSE 23:10:12 89° ENE 23:14:42 10° NNW visible
02 Jul ? 00:44:39 10° SW 00:47:20 15° W 00:50:01 10° NW visible
02 Jul ? 23:29:12 10° S 23:33:36 59° WSW 23:38:02 10° NNW visible
03 Jul ? 23:52:55 10° SSW 23:57:05 38° W 00:01:16 10° NNW visible
05 Jul ? 00:16:57 10° SSW 00:20:38 25° W 00:24:19 10° NW visible
05 Jul ? 23:02:42 10° SSE 23:07:10 84° ENE 23:11:39 10° NNW visible
